Time,TemperatureF,DewpointF,PressureIn,WindDirection,WindDirectionDegrees,WindSpeedMPH,WindSpeedGustMPH,Humidity,HourlyPrecipIn,Conditions,Clouds,dailyrainin,SoftwareType,DateUTC
2013-10-26 00:14:00,33.0,27.0,30.13,NW,316,2.0,4.0,78,0.00,,,0.00,,2013-10-26 04:14:00,
2013-10-26 00:24:00,34.0,27.0,30.13,NW,316,2.0,4.0,76,0.00,,,0.00,,2013-10-26 04:24:00,
2013-10-26 00:44:00,34.0,27.0,30.13,NW,320,2.0,4.0,76,0.00,,,0.00,,2013-10-26 04:44:00,
2013-10-26 00:54:00,35.0,28.0,30.14,NNW,328,2.0,5.0,74,0.00,,,0.00,,2013-10-26 04:54:00,
2013-10-26 01:13:00,36.0,28.0,30.14,NW,321,2.0,4.0,72,0.00,,,0.00,,2013-10-26 05:13:00,
2013-10-26 01:23:00,36.0,28.0,30.14,WNW,303,2.0,4.0,72,0.00,,,0.00,,2013-10-26 05:23:00,
2013-10-26 01:43:00,35.0,27.0,30.14,NNW,328,2.0,5.0,73,0.00,,,0.00,,2013-10-26 05:43:00,
2013-10-26 01:52:00,35.0,27.0,30.14,NNW,328,3.0,5.0,73,0.00,,,0.00,,2013-10-26 05:52:00,
2013-10-26 02:12:00,35.0,27.0,30.14,NNW,337,2.0,5.0,73,0.00,,,0.00,,2013-10-26 06:12:00,
2013-10-26 02:22:00,35.0,28.0,30.14,NW,326,2.0,4.0,74,0.00,,,0.00,,2013-10-26 06:22:00,
2013-10-26 02:42:00,35.0,28.0,30.14,NW,316,2.0,5.0,75,0.00,,,0.00,,2013-10-26 06:42:00,
2013-10-26 02:52:00,34.0,27.0,30.14,NNW,341,1.0,3.0,76,0.00,,,0.00,,2013-10-26 06:52:00,
2013-10-26 03:12:00,35.0,29.0,30.14,NNW,335,2.0,6.0,77,0.00,,,0.00,,2013-10-26 07:12:00,
2013-10-26 03:22:00,35.0,28.0,30.13,NW,324,1.0,3.0,76,0.00,,,0.00,,2013-10-26 07:22:00,
2013-10-26 03:42:00,35.0,29.0,30.13,NW,319,1.0,4.0,77,0.00,,,0.00,,2013-10-26 07:42:00,
2013-10-26 03:52:00,34.0,28.0,30.12,NW,305,0.0,2.0,78,0.00,,,0.00,,2013-10-26 07:52:00,
2013-10-26 04:12:00,34.0,28.0,30.13,NNW,338,3.0,5.0,80,0.00,,,0.00,,2013-10-26 08:12:00,
2013-10-26 04:22:00,33.0,28.0,30.13,NW,326,2.0,4.0,81,0.00,,,0.00,,2013-10-26 08:22:00,
2013-10-26 04:42:00,33.0,28.0,30.13,NW,322,2.0,4.0,82,0.00,,,0.00,,2013-10-26 08:42:00,
2013-10-26 04:52:00,32.0,27.0,30.13,NW,326,2.0,3.0,83,0.00,,,0.00,,2013-10-26 08:52:00,
2013-10-26 05:11:00,33.0,28.0,30.13,NNW,328,2.0,4.0,83,0.00,,,0.00,,2013-10-26 09:11:00,
2013-10-26 05:22:00,33.0,28.0,30.13,NW,314,2.0,3.0,83,0.00,,,0.00,,2013-10-26 09:22:00,
2013-10-26 05:43:00,32.0,28.0,30.13,NNW,336,1.0,4.0,84,0.00,,,0.00,,2013-10-26 09:43:00,
2013-10-26 05:53:00,32.0,28.0,30.13,NW,311,0.0,4.0,86,0.00,,,0.00,,2013-10-26 09:53:00,
2013-10-26 06:13:00,32.0,29.0,30.13,NNW,335,3.0,4.0,87,0.00,,,0.00,,2013-10-26 10:13:00,
2013-10-26 06:23:00,32.0,28.0,30.13,NNW,335,3.0,5.0,86,0.00,,,0.00,,2013-10-26 10:23:00,
2013-10-26 06:53:00,33.0,29.0,30.13,NNW,328,3.0,4.0,85,0.00,,,0.00,,2013-10-26 10:53:00,
2013-10-26 07:12:00,34.0,30.0,30.13,NNW,328,2.0,4.0,85,0.00,,,0.00,,2013-10-26 11:12:00,
2013-10-26 07:22:00,34.0,30.0,30.13,NNW,328,2.0,4.0,84,0.00,,,0.00,,2013-10-26 11:22:00,
2013-10-26 07:42:00,33.0,29.0,30.13,NW,321,2.0,4.0,86,0.00,,,0.00,,2013-10-26 11:42:00,
2013-10-26 07:52:00,34.0,30.0,30.13,NNW,336,3.0,5.0,84,0.00,,,0.00,,2013-10-26 11:52:00,
2013-10-26 08:12:00,35.0,31.0,30.13,NNW,330,2.0,5.0,84,0.00,,,0.00,,2013-10-26 12:12:00,
2013-10-26 08:22:00,36.0,31.0,30.13,NW,323,3.0,5.0,82,0.00,,,0.00,,2013-10-26 12:22:00,
2013-10-26 08:42:00,36.0,31.0,30.13,NNW,340,2.0,4.0,82,0.00,,,0.00,,2013-10-26 12:42:00,
2013-10-26 08:52:00,37.0,32.0,30.13,NW,321,2.0,6.0,81,0.00,,,0.00,,2013-10-26 12:52:00,
2013-10-26 09:11:00,38.0,32.0,30.13,NNW,335,1.0,6.0,78,0.00,,,0.00,,2013-10-26 13:11:00,
2013-10-26 09:21:00,39.0,32.0,30.13,NNW,330,3.0,5.0,77,0.00,,,0.00,,2013-10-26 13:21:00,
2013-10-26 09:42:00,41.0,33.0,30.12,NW,318,1.0,6.0,74,0.00,,,0.00,,2013-10-26 13:42:00,
2013-10-26 09:52:00,42.0,33.0,30.12,NNW,346,4.0,8.0,71,0.00,,,0.00,,2013-10-26 13:52:00,
2013-10-26 10:11:00,43.0,34.0,30.12,NNW,335,3.0,9.0,70,0.00,,,0.00,,2013-10-26 14:11:00,
2013-10-26 10:21:00,44.0,34.0,30.11,NNW,343,2.0,9.0,69,0.00,,,0.00,,2013-10-26 14:21:00,
2013-10-26 10:42:00,46.0,35.0,30.10,West,281,4.0,10.0,65,0.00,,,0.00,,2013-10-26 14:42:00,
2013-10-26 10:52:00,49.0,36.0,30.09,NNW,330,2.0,8.0,60,0.00,,,0.00,,2013-10-26 14:52:00,
2013-10-26 11:12:00,51.0,35.0,30.08,NW,312,2.0,7.0,54,0.00,,,0.00,,2013-10-26 15:12:00,
2013-10-26 11:23:00,52.0,35.0,30.07,North,4,3.0,6.0,52,0.00,,,0.00,,2013-10-26 15:23:00,
2013-10-26 11:44:00,52.0,32.0,30.07,NNW,327,5.0,11.0,46,0.00,,,0.00,,2013-10-26 15:44:00,
2013-10-26 11:55:00,52.0,32.0,30.07,WNW,291,6.0,17.0,46,0.00,,,0.00,,2013-10-26 15:55:00,
2013-10-26 12:14:00,52.0,28.0,30.05,NNW,328,3.0,9.0,40,0.00,,,0.00,,2013-10-26 16:14:00,
2013-10-26 12:24:00,52.0,30.0,30.05,ENE,63,2.0,7.0,43,0.00,,,0.00,,2013-10-26 16:24:00,
2013-10-26 12:44:00,53.0,29.0,30.04,North,11,3.0,11.0,39,0.00,,,0.00,,2013-10-26 16:44:00,
2013-10-26 12:53:00,53.0,28.0,30.04,NNE,16,3.0,11.0,38,0.00,,,0.00,,2013-10-26 16:53:00,
2013-10-26 13:13:00,54.0,27.0,30.02,NW,309,5.0,14.0,35,0.00,,,0.00,,2013-10-26 17:13:00,
2013-10-26 13:23:00,53.0,26.0,30.02,North,360,5.0,13.0,35,0.00,,,0.00,,2013-10-26 17:23:00,
2013-10-26 13:43:00,54.0,27.0,30.01,NNW,336,4.0,16.0,35,0.00,,,0.00,,2013-10-26 17:43:00,
2013-10-26 13:52:00,53.0,27.0,30.01,NNW,344,4.0,14.0,37,0.00,,,0.00,,2013-10-26 17:52:00,
2013-10-26 14:12:00,53.0,28.0,29.99,NE,35,3.0,12.0,38,0.00,,,0.00,,2013-10-26 18:12:00,
2013-10-26 14:22:00,54.0,28.0,29.99,North,4,3.0,18.0,36,0.00,,,0.00,,2013-10-26 18:22:00,
2013-10-26 14:42:00,54.0,29.0,29.98,NNE,27,2.0,11.0,38,0.00,,,0.00,,2013-10-26 18:42:00,
2013-10-26 14:52:00,54.0,26.0,29.97,North,359,6.0,18.0,34,0.00,,,0.00,,2013-10-26 18:52:00,
2013-10-26 15:12:00,54.0,28.0,29.97,North,2,4.0,13.0,36,0.00,,,0.00,,2013-10-26 19:12:00,
2013-10-26 15:22:00,54.0,28.0,29.96,NW,307,3.0,9.0,36,0.00,,,0.00,,2013-10-26 19:22:00,
2013-10-26 15:42:00,55.0,28.0,29.95,NNW,332,3.0,9.0,35,0.00,,,0.00,,2013-10-26 19:42:00,
2013-10-26 15:52:00,56.0,28.0,29.94,North,349,3.0,8.0,34,0.00,,,0.00,,2013-10-26 19:52:00,
2013-10-26 16:12:00,56.0,26.0,29.93,North,360,5.0,14.0,31,0.00,,,0.00,,2013-10-26 20:12:00,
2013-10-26 16:22:00,55.0,26.0,29.93,NW,326,3.0,16.0,32,0.00,,,0.00,,2013-10-26 20:22:00,
2013-10-26 16:43:00,55.0,26.0,29.92,NNW,335,4.0,10.0,33,0.00,,,0.00,,2013-10-26 20:43:00,
2013-10-26 16:52:00,54.0,27.0,29.91,NNW,341,4.0,16.0,35,0.00,,,0.00,,2013-10-26 20:52:00,
2013-10-26 17:11:00,54.0,27.0,29.91,NNW,339,3.0,11.0,35,0.00,,,0.00,,2013-10-26 21:11:00,
2013-10-26 17:22:00,53.0,27.0,29.90,North,353,4.0,14.0,37,0.00,,,0.00,,2013-10-26 21:22:00,
2013-10-26 17:43:00,53.0,28.0,29.91,NNW,333,4.0,8.0,38,0.00,,,0.00,,2013-10-26 21:43:00,
2013-10-26 17:55:00,53.0,29.0,29.90,NNW,342,3.0,10.0,39,0.00,,,0.00,,2013-10-26 21:55:00,
2013-10-26 18:14:00,52.0,28.0,29.90,NW,310,3.0,7.0,40,0.00,,,0.00,,2013-10-26 22:14:00,
2013-10-26 18:24:00,52.0,29.0,29.90,SSW,208,2.0,8.0,41,0.00,,,0.00,,2013-10-26 22:24:00,
2013-10-26 18:43:00,51.0,29.0,29.90,North,349,1.0,7.0,43,0.00,,,0.00,,2013-10-26 22:43:00,
2013-10-26 18:53:00,50.0,29.0,29.90,NNW,330,4.0,9.0,45,0.00,,,0.00,,2013-10-26 22:53:00,
2013-10-26 19:12:00,50.0,30.0,29.90,NW,309,3.0,10.0,46,0.00,,,0.00,,2013-10-26 23:12:00,
2013-10-26 19:22:00,50.0,31.0,29.90,NNW,328,3.0,8.0,47,0.00,,,0.00,,2013-10-26 23:22:00,
2013-10-26 19:42:00,50.0,32.0,29.90,North,356,3.0,9.0,49,0.00,,,0.00,,2013-10-26 23:42:00,
2013-10-26 19:52:00,49.0,32.0,29.91,NNE,18,3.0,10.0,51,0.00,,,0.00,,2013-10-26 23:52:00,
2013-10-26 20:12:00,49.0,32.0,29.91,WNW,300,3.0,8.0,51,0.00,,,0.00,,2013-10-27 00:12:00,
2013-10-26 20:22:00,49.0,32.0,29.91,NW,326,4.0,10.0,52,0.00,,,0.00,,2013-10-27 00:22:00,
2013-10-26 20:42:00,49.0,33.0,29.91,NW,326,3.0,10.0,53,0.00,,,0.00,,2013-10-27 00:42:00,
2013-10-26 20:52:00,49.0,33.0,29.90,NNW,335,2.0,6.0,54,0.00,,,0.00,,2013-10-27 00:52:00,
2013-10-26 21:12:00,49.0,34.0,29.90,NNW,330,2.0,10.0,55,0.00,,,0.00,,2013-10-27 01:12:00,
2013-10-26 21:22:00,49.0,34.0,29.90,NW,316,2.0,6.0,55,0.00,,,0.00,,2013-10-27 01:22:00,
2013-10-26 21:42:00,49.0,34.0,29.90,NNW,340,2.0,6.0,56,0.00,,,0.00,,2013-10-27 01:42:00,
2013-10-26 21:52:00,49.0,34.0,29.90,NNW,335,2.0,6.0,57,0.00,,,0.00,,2013-10-27 01:52:00,
2013-10-26 22:12:00,49.0,35.0,29.89,NW,326,2.0,11.0,58,0.00,,,0.00,,2013-10-27 02:12:00,
2013-10-26 22:22:00,49.0,35.0,29.89,NNW,328,1.0,9.0,59,0.00,,,0.00,,2013-10-27 02:22:00,
2013-10-26 22:42:00,49.0,35.0,29.89,NNW,334,3.0,8.0,59,0.00,,,0.00,,2013-10-27 02:42:00,
2013-10-26 22:52:00,49.0,35.0,29.89,NW,324,2.0,11.0,59,0.00,,,0.00,,2013-10-27 02:52:00,
2013-10-26 23:12:00,49.0,35.0,29.88,NNW,329,3.0,7.0,59,0.00,,,0.00,,2013-10-27 03:12:00,
2013-10-26 23:22:00,49.0,35.0,29.87,North,355,2.0,11.0,59,0.00,,,0.00,,2013-10-27 03:22:00,
2013-10-26 23:45:00,49.0,35.0,29.87,North,349,3.0,9.0,58,0.00,,,0.00,,2013-10-27 03:45:00,
2013-10-26 23:54:00,49.0,35.0,29.87,ENE,68,2.0,9.0,59,0.00,,,0.00,,2013-10-27 03:54:00,